This is the latest recevied weather packets stored in our database for station/object VA7NEZ. If no packets are shown the sender has not sent any weather packets the latest 10 day(s).
| Time | Temp. | Humidity | Pressure | Rain* | Wind** | Luminosity | Snow |
|---|---|---|---|---|---|---|---|
| 1788147407 | 66° F | 52% | 762.4 mmHg | 0 in | - | - | - |
| 1788146863 | 66° F | 52% | 762.4 mmHg | 0 in | - | - | - |
| 1788146272 | 67° F | 51% | 762.3 mmHg | 0 in | - | - | - |
| 1788145767 | 67° F | 51% | 762.3 mmHg | 0 in | - | - | - |
| 1788145262 | 67° F | 50% | 762.1 mmHg | 0 in | - | - | - |
| 1788144692 | 68° F | 49% | 762.1 mmHg | 0 in | - | - | - |
| 1788144182 | 68° F | 48% | 762 mmHg | 0 in | - | - | - |
| 1788143683 | 68° F | 49% | 762.1 mmHg | 0 in | - | - | - |
| 1788143183 | 68° F | 48% | 762.1 mmHg | 0 in | - | - | - |
| 1788142657 | 68° F | 48% | 762.2 mmHg | 0 in | - | - | - |
| 1788141632 | 68° F | 51% | 762.1 mmHg | 0 in | - | - | - |
| 1788141070 | 68° F | 56% | 762.2 mmHg | 0 in | - | - | - |
| 1788140527 | 68° F | 56% | 762.3 mmHg | 0 in | - | - | - |
| 1788140027 | 69° F | 55% | 762.1 mmHg | 0 in | - | - | - |
| 1788138967 | 69° F | 52% | 762.3 mmHg | 0 in | - | - | - |
| 1788138417 | 70° F | 50% | 762.4 mmHg | 0 in | - | - | - |
| 1788137842 | 70° F | 51% | 762.2 mmHg | 0 in | - | - | - |
| 1788137252 | 70° F | 49% | 762.3 mmHg | 0 in | - | - | - |
| 1788136717 | 70° F | 48% | 762.1 mmHg | 0 in | - | - | - |
| 1788136212 | 70° F | 51% | 762.1 mmHg | 0 in | - | - | - |
| 1788135713 | 70° F | 50% | 762.1 mmHg | 0 in | - | - | - |
| 1788135202 | 70° F | 54% | 762.1 mmHg | 0 in | - | - | - |
| 1788134657 | 70° F | 53% | 762.2 mmHg | 0 in | - | - | - |
| 1788134077 | 70° F | 57% | 762.2 mmHg | 0 in | - | - | - |
| 1788133532 | 69° F | 59% | 762.3 mmHg | 0 in | - | - | - |
* Rain latest hour (hover to see other rain measurements)
** Current wind speed in m/s (hover to see current wind gust speed)